Location: Newark
(34.1333°N, 7.9667°W)
Time: 17:07:08
(UTC+00:00)

Hubble Space Telescope - Pass Details

Date: 10 February 2023
Orbit: 527 x 531 km, 28.5° (Epoch: 20 March)

Event Time Altitude Azimuth Distance (km) Brightness Sun altitude
Rises 20:17:45 0° 223° (SW) 2,640 4.9 -26.8°
Reaches altitude 10° 20:20:34 10° 204° (SSW) 1,752 3.6 -27.3°
Enters shadow 20:20:58 12° 199° (SSW) 1,653 3.4 -27.4°
